Regional Weather Roundup
Issued by NWS

Home | Current Version | Previous Version | Graphics & Text | Print | Product List | Glossary On
Versions: 1 2 3 4 5 6 7 8 9 10 11 12 13 14 15 16 17 18 19 20 21 22 23 24 25 26 27 28 29 30 31 32 33 34 35 36 37 38 39 40 41 42 43 44 45 46 47 48 49 50
000
ASUS43 KLOT 291308
RWRIL

ILLINOIS REGIONAL WEATHER ROUNDUP
NATIONAL WEATHER SERVICE CHICAGO/ROMEOVILLE IL
800 AM CDT SUN MAR 29 2015

NOTE: "FAIR" INDICATES FEW OR NO CLOUDS BELOW 12,000 FEET WITH NO
SIGNIFICANT WEATHER AND/OR OBSTRUCTIONS TO VISIBILITY.

* THESE STATIONS ARE NOT UNDER NWS QUALITY CONTROL. THEY ALSO MAY NOT
  REPORT WEATHER SUCH AS PRECIPITATION OR FOG.

ILZ001-002-007-009-015-016-024-291400-
NORTHWEST ILLINOIS

CITY           SKY/WX    TMP DP  RH WIND       PRES   REMARKS
MOLINE         MOSUNNY   35  21  56 S20G29    29.98F WCI  24
STERLING*      MOSUNNY   34  21  60 S8G21     30.06S WCI  27
SAVANNA*       PTSUNNY   33  22  63 S18       30.00F WCI  22
$$

ILZ003-004-008-010-011-017-018-291400-
NORTH CENTRAL ILLINOIS

CITY           SKY/WX    TMP DP  RH WIND       PRES   REMARKS
ROCKFORD       PTSUNNY   32  19  58 S22G28    30.06F WCI  19
FREEPORT*      MOSUNNY   31  21  65 S23G29    30.04R WCI  18
ROCHELLE*      MOSUNNY   30  22  71 S22G28    30.05F WCI  17
DE KALB*       MOSUNNY   28  20  71 S20       30.07F WCI  15
PERU*          MOSUNNY   32  22  66 S20G25    30.09F WCI  21
$$

ILZ005-006-012>014-019>023-291400-
NORTHEAST ILLINOIS

CITY           SKY/WX    TMP DP  RH WIND       PRES   REMARKS
CHICAGO-OHARE  PTSUNNY   32  16  51 S18G29    30.11F WCI  20
CHICAGO-MIDWAY PTSUNNY   32  17  54 S15G26    30.15R WCI  22
AURORA         MOSUNNY   30  19  63 S17       30.11F WCI  18
LANSING*       PTSUNNY   31  17  56 S14       30.18R WCI  21
JOLIET*        SUNNY     35  20  55 S12G17    30.15F WCI  27
WAUKEGAN       PTSUNNY   33  15  47 S14       30.08F WCI  23
DUPAGE AIRPORT MOSUNNY   31  18  58 S17G26    30.10F WCI  19
KANKAKEE*      SUNNY     31  20  64 S14       30.20R WCI  21
WHEELING       PTSUNNY   32  15  49 S18G25    30.13F WCI  20
MORRIS*        MOSUNNY   32  19  59 S15G21    30.14F WCI  22
ROMEOVILLE*    MOSUNNY   32  19  59 S21       30.13F WCI  20
NORTHERLY ISL    N/A     33  15  48 SW18        N/A  WCI  22
$$

LMZ740>746-291400-
SOUTHERN LAKE MICHIGAN

STATION/POSITION SKY/WX   TEMP    WIND        PRES    VSBY  WAVE
                          AIR SEA DIR/SP/G                  HT/PER
                          (F)     (DEG/KT/KT) (MB)    (MI)  (FT/S)
HARRISON CRIB              31     190/ 22/ 25   N/A
BURNHAM HARBOR             33     180/ 13/ 20   N/A
CALUMET HARBOR             30     170/ 11/ 18 1020.0R
BURNS HARBOR               30     180/ 11/ 22 1022.7R
MICHIGAN CITY              29     150/ 16/ 20   N/A
$$

ILZ025>027-034>036-040-047-049-050-058-095>099-291400-
WEST-CENTRAL ILLINOIS

CITY           SKY/WX    TMP DP  RH WIND       PRES   REMARKS
QUINCY         PTSUNNY   37  25  61 S14G25    30.04F WCI  28
GALESBURG*     MOSUNNY   33  24  69 S17G25    30.03F WCI  22
MACOMB*        MOSUNNY   34  26  71 S20       30.07S WCI  23
JACKSONVILLE*  PTSUNNY   36  21  55 SE18G25   30.10F WCI  25
PITTSFIELD*    MOSUNNY   37  27  66 S14       30.11F WCI  29
$$

ILZ028>032-037-038-041>044-048-051>054-059>061-291400-
CENTRAL ILLINOIS

CITY           SKY/WX    TMP DP  RH WIND       PRES   REMARKS
PONTIAC        SUNNY     32  23  68 S21G26    30.16F WCI  20
BLOOMINGTON    MOSUNNY   32  23  69 S20       30.16R WCI  20
DECATUR        SUNNY     34  21  59 S17G25    30.19R WCI  23
PEORIA         MOSUNNY   33  21  61 S16G24    30.11F WCI  23
LACON*         MOSUNNY   33  19  57 S15       30.09F WCI  23
LINCOLN*       MOSUNNY   34  24  65 S17       30.17S WCI  24
SPRINGFIELD    MOSUNNY   34  21  59 S16       30.16R WCI  24
TAYLORVILLE    SUNNY     32  21  64 S14       30.19R WCI  22
$$

ILZ033-039-045-046-055>057-062-063-291400-
EAST-CENTRAL ILLINOIS

CITY           SKY/WX    TMP DP  RH WIND       PRES   REMARKS
CHAMPAIGN      SUNNY     32  22  66 S16       30.19S WCI  21
DANVILLE*      SUNNY     32  19  59 S14G21    30.19R WCI  22
RANTOUL*       SUNNY     32  25  74 S15       30.20R WCI  22
MATTOON        SUNNY     32  20  61 S14G21    30.20S WCI  22
PARIS*         SUNNY     32  24  71 S15       30.23F WCI  22
$$

ILZ079-100>102-291400-
SOUTHWEST ILLINOIS

CITY           SKY/WX    TMP DP  RH WIND       PRES   REMARKS
ALTON          MOSUNNY   32  16  51 SE13      30.17S WCI  22
BELLEVILLE     MOSUNNY   34  22  60 S7        30.20R WCI  28
CAHOKIA*       SUNNY     35  21  56 S10       30.19R WCI  27
SPARTA*        SUNNY     33  20  59 SE9       30.22S WCI  25
$$

ILZ064>066-069>071-074>076-080>082-084>086-088>090-092>094-291400-
SOUTH-CENTRAL ILLINOIS

CITY           SKY/WX    TMP DP  RH WIND       PRES   REMARKS
CARBONDALE     SUNNY     35  20  54 S9        30.25S WCI  28
CAIRO*         SUNNY     37  22  52 SE10G17   30.27F WCI  30
EFFINGHAM*     SUNNY     33  17  52 SE9G17    30.25S WCI  26
MARION         SUNNY     36  21  55 S14       30.26F WCI  27
MT. VERNON     SUNNY     34  19  55 S8        30.25S WCI  27
CENTRALIA*     SUNNY     34  20  56 SE15      30.22S WCI  24
SALEM*         SUNNY     35  20  54 S10       30.23S WCI  27
METROPOLIS*    SUNNY     36  22  57 SE8       30.28S WCI  29
$$

ILZ067-068-072-073-078-083-087-091-291400-
SOUTHEAST ILLINOIS

CITY           SKY/WX    TMP DP  RH WIND       PRES   REMARKS
LAWRENCEVILLE  SUNNY     32  22  66 S10       30.29F WCI  24
FLORA*         SUNNY     32  25  74 S10       30.26S WCI  24
FAIRFIELD*     SUNNY     34  23  64 SE8       30.25S WCI  27
HARRISBURG*    SUNNY     33  24  70 SE7       30.28F WCI  26
ROBINSON*      SUNNY     32  22  66 S13G18    30.27F WCI  22
CARMI*         SUNNY     34  22  63 SE13      30.28F WCI  25
$$

ABBREVIATIONS USED IN REMARKS
   TC - TEMPERATURE IN CELSIUS
  WCI - WIND CHILL INDEX
   HX - HEAT INDEX
  VSB - VISIBILITY
$$



USA.gov is the U.S. government's official web portal to all federal, state and local government web resources and services.